Regional Weather Roundup
Issued by NWS

Home | Current Version | Previous Version | Text Only | Print | Product List | Glossary Off
Versions: 1 2 3 4 5 6 7 8 9 10 11 12 13 14 15 16 17 18 19 20 21 22 23 24 25 26 27

000
ASUS45 KBOU 282207
RWRCO

WEATHER ROUNDUP FOR COLORADO
NATIONAL WEATHER SERVICE DENVER/BOULDER CO
400 PM MDT TUE MAR 28 2017

NOTE: "FAIR" INDICATES FEW OR NO CLOUDS BELOW 12000 FEET WITH NO
SIGNIFICANT WEATHER AND/OR OBSTRUCTIONS TO VISIBILITY.

COZ001>005-013-030-031-282300-
...NORTHWEST COLORADO...

CITY           SKY/WX    TMP DP  RH WIND       PRES   REMARKS
CRAIG          CLOUDY    44  36  73 N16G26    29.93S
HAYDEN         FAIR      43  34  70 W13       29.92S
MEEKER         LGT RAIN  39  37  92 SE5       29.94R
MOUNT WERNER   NOT AVBL
STEAMBOAT SPGS CLOUDY    37  35  93 E8        29.92S
WALDEN         NOT AVBL
$$

COZ006>008-011-282300-
...WEST CENTRAL VALLEYS...

CITY           SKY/WX    TMP DP  RH WIND       PRES   REMARKS
GRAND JUNCTION CLOUDY    52  40  63 W9        29.90S
MONTROSE       CLOUDY    48  40  73 NW22G28   29.89S
EAGLE          LGT RAIN  45  36  70 W8        29.89R
RIFLE          CLOUDY    47  37  68 W13       29.90R
DELTA          FAIR      54  40  57 W17G28    29.85R
NUCLA          PTSUNNY   50  37  62 NW18G24   29.91R
$$

COZ017>023-064>068-282300-
...SOUTHWEST COLORADO...

CITY           SKY/WX    TMP DP  RH WIND       PRES   REMARKS
DURANGO        PTSUNNY   49  31  49 W20       29.77F
CORTEZ         FAIR      49  38  65 NW17G32   29.83R
PAGOSA SPRINGS PTSUNNY   38  37  94 S5        29.82F
TELLURIDE      CLOUDY    38  30  73 N5        29.90R HAZE
WOLF CREEK PAS FAIR      32  19  59 N6        29.92S WCI  26
$$

COZ009-010-012-014-032>034-037-058>063-282300-
...CENTRAL COLORADO...

CITY           SKY/WX    TMP DP  RH WIND       PRES   REMARKS
ASPEN          LGT RAIN  39  35  86 N8        29.86S
BUENA VISTA    CLOUDY    41  33  73 E12       29.85R
COPPER MTN     CLOUDY    30  27  86 NW10      29.94R VSB<1/4 WCI  21
BERTHOUD PASS  HAZE      21  10  63 MISG      29.96R VSB 1/4
COTTONWOOD PAS TSTM      36  32  87 E6        29.88R
GUNNISON       FAIR      43  33  68 W15       29.83S
KREMMLING      DRIZZLE   43  36  75 N7        29.91R
LEADVILLE      PTSUNNY   35  24  64 NW15G21   29.86R WCI  25
MONARCH PASS   CLOUDY    28  27  93 CALM      30.01F FOG
SALIDA         CLOUDY    52  27  38 NE10G16   29.87R
SUNLIGHT       SNOW      27  27 100 NW7       29.99R VSB<1/4 WCI  19
WILKERSON PASS SNOW      28  27  93 E9G20     29.94R VSB<1/4 WCI  20
$$

COZ069>075-282300-
...SAN LUIS VALLEY/SANGRE DE CRISTO MOUNTAINS...

CITY           SKY/WX    TMP DP  RH WIND       PRES   REMARKS
ALAMOSA        PTSUNNY   45  32  60 E16       29.75R
LA VETA PASS   NOT AVBL
SAGUACHE       CLOUDY    48  30  49 N14G20    29.79R
$$

COZ035-036-038>040-282300-
...NORTHERN COLORADO FRONT RANGE...

CITY           SKY/WX    TMP DP  RH WIND       PRES   REMARKS
DENVER INTL AP LGT RAIN  43  41  93 N16       29.86S FOG
DMNS CITY PARK   N/A     42  42  98 NW6G15    29.89R
AURORA         LGT RAIN  41  41  97 NW13      29.88R FOG
FRONT RANGE AP CLOUDY    46  43  87 NW17      29.87R FOG
ERIE MUNI ARPT LGT RAIN  44  41  90 N12G17    29.89S
BOULDER MUN AP LGT RAIN  43  41  93 W3        29.90R
CENTENNIAL     LGT RAIN  41  40  96 N16       29.87S FOG
BROOMFIELD     DRIZZLE   41  39  93 NW17      29.89S
FORT COLLINS   LGT RAIN  45  43  93 N16       29.90S
LONGMONT       DRIZZLE   47  40  75 N12G21    29.91R
$$

COZ041-046-047-076>085-087-088-282300-
...PIKES PEAK/PALMER DIVIDE AND SOUTHERN FOOTHILLS...

CITY           SKY/WX    TMP DP  RH WIND       PRES   REMARKS
COLO. SPRINGS  PTSUNNY   47  36  65 N20       29.85R
A. F. ACADEMY  LGT RAIN  42  37  84 N20G26    29.86R
SCHRIEVER AFB  PTSUNNY   44  39  81 N17G23    29.85R
ELLICOTT       MIX PCPN N/A N/A N/A E13       29.85R
FALCON         CLOUDY    43  36  75 N15G24    29.88R
FORT CARSON    NOT AVBL
LIMON          LGT RAIN  43  43 100 SE12      29.86R
MONUMENT HILL  FOG       36  36 100 N12       29.90R VSB<1/4
TRINIDAD       CLOUDY    54  38  54 NE14      29.76S
$$

COZ042>045-048>051-090-091-282300-
...NORTHEAST COLORADO...

CITY           SKY/WX    TMP DP  RH WIND       PRES   REMARKS
GREELEY ARPT   LGT RAIN  45  43  93 N14       29.89S FOG
AKRON          LGT RAIN  44  42  93 SE20G26   29.87S FOG
BURLINGTON     LGT RAIN  44  42  93 E21       29.88F
WRAY           NOT AVBL
STERLING       DRIZZLE   45  45 100 SE17G25   29.89R
HOLYOKE        LGT RAIN  45  43  93 E22G30    29.95R
FORT MORGAN    LGT RAIN  47  45  90 E9        29.87S
$$

COZ086-089-092>099-282300-
...SOUTHEAST COLORADO...

CITY           SKY/WX    TMP DP  RH WIND       PRES   REMARKS
PUEBLO         CLOUDY    56  42  59 E22       29.78R
LA JUNTA       CLOUDY    49  43  80 E23       29.81S
LAMAR          CLOUDY    48  44  86 E21       29.82S
SPRINGFIELD      N/A     42  42 100 E18G25    29.81S
$$




USA.gov is the U.S. government's official web portal to all federal, state and local government web resources and services.